Ocean City, MD

8:09 AM EST on February 12, 2016 (GMT -0500)
Ocean City Municipal

Weather History for KOXB - March, 2014

Change the Weather History Date:

Thursday, March 27, 2014

  Actual Average (KSBY) Record (KSBY)
Temperature  
Mean Temperature 29 °F 48 °F  
Max Temperature 41 °F 59 °F 85 °F (1921)
Min Temperature 19 °F 38 °F 20 °F (1951)
Degree Days  
Heating Degree Days 36 17  
Month to date heating degree days 565  
Since 1 July heating degree days 3870  
Cooling Degree Days 0 0  
Month to date cooling degree days 0  
Year to date cooling degree days 0  
Moisture  
Dew Point 19 °F    
Average Humidity 59    
Maximum Humidity 77    
Minimum Humidity 44    
Precipitation  
Precipitation 0.00 in 0.15 in 1.48 in (1983)
Month to date precipitation 3.83  
Year to date precipitation 10.79  
Snow  
Snow 0.00 in 0.00 in T in (1930)
Month to date snowfall 0.8  
Since 1 July snowfall 9.1  
Snow Depth -    
Sea Level Pressure  
Sea Level Pressure 30.41 in    
Wind  
Wind Speed 5 mph (WSW)    
Max Wind Speed 10 mph    
Max Gust Speed 17 mph    
Visibility 10 miles    
Events      
T = Trace of Precipitation, MM = Missing Value Source: NWS Daily Summary

Daily Weather History Graph

Daily Weather History Graph

Search for Another Location

Airport or City:

Trip Planner

Search our weather history database for the weather conditions in past years. The results will help you decide how hot, cold, wet, or windy it might be!

Date:

Astronomy

Mar. 27, 2014 Rise Set
Actual Time 6:53 AM EDT 7:19 PM EDT
Civil Twilight 6:26 AM EDT 7:45 PM EDT
Nautical Twilight 5:55 AM EDT 8:16 PM EDT
Astronomical Twilight 5:23 AM EDT 8:48 PM EDT
Moon 4:40 AM EDT (3/27) 4:06 PM EDT (3/27)
Length of Visible Light 13h 18m
Length of Day
12h 25m
Waning Crescent, 13% of the Moon is Illuminated
Mar 27
Waning Crescent
Mar 30
New
Apr 7
First Quarter
Apr 15
Full
Apr 22
Last Quarter

Hourly Weather History & Observations

Time (EDT) Temp. Windchill Dew Point Humidity Pressure Visibility Wind Dir Wind Speed Gust Speed Precip Events Conditions
12:53 AM 28.0 °F 22.8 °F 12.0 °F 51% 30.33 in 10.0 mi WNW 4.6 mph - N/A   Clear
1:53 AM 26.1 °F 20.5 °F 12.0 °F 55% 30.34 in 10.0 mi NNW 4.6 mph - N/A   Clear
2:53 AM 24.1 °F 19.7 °F 12.0 °F 60% 30.36 in 10.0 mi NNW 3.5 mph - N/A   Clear
3:53 AM 25.0 °F 19.3 °F 12.0 °F 58% 30.37 in 10.0 mi WNW 4.6 mph - N/A   Clear
4:53 AM 25.0 °F 19.3 °F 10.9 °F 55% 30.39 in 10.0 mi NW 4.6 mph - N/A   Clear
5:53 AM 21.9 °F 17.2 °F 12.9 °F 68% 30.42 in 10.0 mi NW 3.5 mph - N/A   Clear
6:53 AM 19.0 °F 13.9 °F 12.9 °F 77% 30.44 in 10.0 mi North 3.5 mph - N/A   Clear
7:53 AM 26.1 °F - 18.0 °F 71% 30.46 in 10.0 mi Calm Calm - N/A   Clear
8:53 AM 30.9 °F 26.2 °F 14.0 °F 50% 30.47 in 10.0 mi NNW 4.6 mph - N/A   Clear
9:53 AM 34.0 °F 31.0 °F 14.0 °F 44% 30.48 in 10.0 mi Variable 3.5 mph - N/A   Clear
10:53 AM 34.0 °F 28.8 °F 16.0 °F 48% 30.49 in 10.0 mi Variable 5.8 mph - N/A   Clear
11:53 AM 34.0 °F 28.8 °F 16.0 °F 48% 30.49 in 10.0 mi SE 5.8 mph - N/A   Clear
12:53 PM 35.1 °F 29.3 °F 19.9 °F 54% 30.48 in 10.0 mi SSE 6.9 mph - N/A   Clear
1:53 PM 36.0 °F 30.3 °F 21.0 °F 55% 30.46 in 10.0 mi South 6.9 mph - N/A   Clear
2:53 PM 37.9 °F 30.9 °F 21.0 °F 51% 30.43 in 10.0 mi SSW 10.4 mph - N/A   Clear
3:53 PM 37.9 °F 32.1 °F 19.9 °F 48% 30.41 in 10.0 mi South 8.1 mph 17.3 mph N/A   Clear
4:53 PM 39.9 °F 33.9 °F 21.9 °F 49% 30.40 in 10.0 mi SSW 9.2 mph 17.3 mph N/A   Clear
5:53 PM 39.0 °F 32.8 °F 19.9 °F 46% 30.40 in 10.0 mi SSW 9.2 mph - N/A   Clear
6:53 PM 37.0 °F 30.4 °F 25.0 °F 62% 30.38 in 10.0 mi SSW 9.2 mph - N/A   Clear
7:53 PM 37.9 °F 34.4 °F 27.0 °F 65% 30.38 in 10.0 mi SSW 4.6 mph - N/A   Clear
8:53 PM 39.0 °F 33.4 °F 30.0 °F 70% 30.36 in 10.0 mi SSW 8.1 mph - N/A   Clear
9:53 PM 39.0 °F 34.8 °F 32.0 °F 76% 30.35 in 10.0 mi Variable 5.8 mph - N/A   Clear
10:53 PM 39.9 °F 33.9 °F 32.0 °F 73% 30.33 in 10.0 mi SSW 9.2 mph - N/A   Clear
11:53 PM 41.0 °F 34.7 °F 33.1 °F 73% 30.32 in 10.0 mi SW 10.4 mph - N/A   Clear